This demonstration page uses our WeatherBlox Daily Observations layout. Learn more.

Left ArrowRight Arrow

Hourly Observations for July 20, 2021

Temp ( °F °C ) Dew Point ( °F °C ) Humidity (%) Winds ( mph kmh ) Pressure ( in mb ) Visibility ( mi km ) Precip ( " mm )
12:53 am 00:53 Clear 78 25.6 66 18.9 67 67 E 9 15 30.01 1016 10 16 0.00 0.00
1:53 am 01:53 Clear 75 23.9 66 18.9 74 74 ENE 9 15 30.00 1016 10 16 0.00 0.00
2:53 am 02:53 Clear 74 23.3 66 18.9 76 76 ENE 8 13 30.01 1016 10 16 0.00 0.00
3:53 am 03:53 Clear 73 22.8 66 18.9 79 79 ENE 7 11 30.00 1016 10 16 0.00 0.00
4:53 am 04:53 Partly Cloudy 72 22.2 66 18.9 82 82 NE 5 7 30.01 1016 10 16 0.00 0.00
5:53 am 05:53 Mostly Cloudy 71 21.7 67 19.4 87 87 Calm 30.00 1016 10 16 0.00 0.00
6:53 am 06:53 Cloudy 70 21.1 66 18.9 87 87 N 5 7 30.01 1016 10 16 0.00 0.00
7:53 am 07:53 Partly Cloudy 72 22.2 66 18.9 82 82 NE 3 6 30.02 1017 10 16 0.00 0.00
8:53 am 08:53 Sunny 76 24.4 65 18.3 69 69 E 7 11 30.04 1017 10 16 0.00 0.00
9:53 am 09:53 Sunny 79 26.1 65 18.3 62 62 ESE 8 13 30.05 1018 10 16 0.00 0.00
10:53 am 10:53 Partly Cloudy 81 27.2 65 18.3 58 58 SE 9 15 30.04 1017 10 16 0.00 0.00
11:53 am 11:53 Mostly Cloudy 83 28.3 63 17.2 51 51 ESE 7 11 30.04 1017 10 16 0.00 0.00
12:53 pm 12:53 Mostly Sunny 85 29.4 61 16.1 45 45 SE 8 13 30.02 1017 10 16 0.00 0.00
1:53 pm 13:53 Cloudy 84 28.9 59 15 43 43 SE 7 11 30.00 1016 10 16 0.00 0.00
2:53 pm 14:53 Sunny 87 30.6 60 15.6 40 40 SE 7 11 29.97 1015 10 16 0.00 0.00
3:53 pm 15:53 Mostly Cloudy 88 31.1 59 15 38 38 E 12 19 29.95 1014 10 16 0.00 0.00
4:53 pm 16:53 Partly Cloudy 89 31.7 57 13.9 34 34 ESE 7 11 29.92 1013 10 16 0.00 0.00
5:53 pm 17:53 Partly Cloudy 90 32.2 56 13.3 32 32 NNE 9 15 29.90 1013 10 16 0.00 0.00
6:22 pm 18:22 Mostly Cloudy 88 31.1 60 15.6 39 39 E 16 26 29.82 1010 10 16 0.00 0.00
6:53 pm 18:53 Mostly Sunny 87 30.6 59 15 39 39 E 15 24 29.90 1012 10 16 0.00 0.00
7:53 pm 19:53 Sunny 85 29.4 59 15 42 42 E 18 30 29.89 1012 10 16 0.00 0.00
8:53 pm 20:53 Sunny 83 28.3 59 15 44 44 E 13 20 29.90 1012 10 16 0.00 0.00
9:53 pm 21:53 Clear 81 27.2 59 15 47 47 E 8 13 29.92 1013 10 16 0.00 0.00
10:53 pm 22:53 Clear 79 26.1 58 14.4 49 49 E 10 17 29.94 1014 10 16 0.00 0.00
11:53 pm 23:53 Clear 76 24.4 58 14.4 54 54 E 9 15 29.96 1015 10 16 0.00 0.00

Powered by AerisWeather